Find Palapa C1

NORAD ID: 23779 Int'l Des: 1996-006 Owner: SINDO/PSN Country: ID operational
HEOCIRCULAR

当前视图

正在加载3D地球...

关于 Palapa C1

正在加载描述...

即将过境

Passes for default location (London). Set your location on the main map for personalized predictions.

高度历史

Loading altitude history...

两行轨道根数

1 23779U 96006A 26151.46085431 -.00000262 00000-0 00000+0 0 9995
2 23779 10.8272 45.9964 0004399 177.7362 346.9777 0.99598891110682
Epoch: May 31, 2026 • Age: 9 hours

当前状态

高度 35988.8 km
速度 3.07 km/s
星下点 -8.83°S, 155.43°E
发射日期 Feb 1, 1996
运行时间 30.3 years
类型 other

技术详情

分类 Payload
质量 2989.00 kg
干质量 1600.00 kg
总质量 2989.00 kg
长度 4.50 m
直径 2.80 m
跨度 20.00 m
形状 Box + 2 Pan
制造商 HSES
平台类型 HS-601
阶段状态 Unknown Active Status
所有者/国家 SINDO/PSN/ID

Most Searched